TIANMU-1 07

Last updated on Sun Apr 12 2026 00:02:27 GMT+0000 (Coordinated Universal Time)

1 57399U 23101A 26100.58196267 .00006637 00000+0 23536-3 0 9996 2 57399 97.2664 152.8131 0003865 66.4019 293.7627 15.29396315151319
UTC large
Height (km)
Speed (km/s)
/
Latitude / Longitude
Inclination (degrees)
Orbital Period (minutes)
Azimuth
Elevation
Range (km)
Doppler Factor

Next 0 passes for location: London (51.5072 / 0.1276)

Sorry there are no passes over London.
TIANMU-1 07